Weather History for Springfield, VT

Change the Weather History Date:

Friday, September 27, 2013

  Actual Average Record
Temperature  
Mean Temperature 54 °F 54 °F  
Max Temperature 64 °F 66 °F 82 °F (1998)
Min Temperature 43 °F 43 °F 34 °F (1997)
Degree Days  
Heating Degree Days 11 11  
Month to date heating degree days 203 162  
Since 1 July heating degree days 248 217  
Growing Degree Days 5 (Base 50)    
Moisture  
Dew Point 47 °F    
Average Humidity 78    
Maximum Humidity 100    
Minimum Humidity 56    
Precipitation  
Precipitation 0.00 in 0.16 in 1.00 in (2002)
Month to date precipitation 2.98 3.28  
Year to date precipitation 30.46 31.65  
Sea Level Pressure  
Sea Level Pressure 30.26 in    
Wind  
Wind Speed 1 mph (NW)    
Max Wind Speed 6 mph    
Max Gust Speed 10 mph    
Visibility 10 miles    
Events      
T = Trace of Precipitation, MM = Missing Value Source: NWS Daily Summary

Daily Weather History Graph

Daily Weather History Graph

Search for Another Location

Airport:

Trip Planner

Search our weather history database for the weather conditions in past years. The results will help you decide how hot, cold, wet, or windy it might be!

Date:

Astronomy

Sep. 27, 2013 Rise Set
Actual Time 6:43 AM EDT 6:37 PM EDT
Civil Twilight 6:14 AM EDT 7:06 PM EDT
Nautical Twilight 5:41 AM EDT 7:39 PM EDT
Astronomical Twilight 5:07 AM EDT 8:13 PM EDT
Moon No Moon Rise 2:23 PM EDT (9/27)
Length of Visible Light 12h 51m
Length of Day
11h 54m
Last Quarter, 45% of the Moon is Illuminated
Sep 27
Last Quarter
Oct 4
New
Oct 11
First Quarter
Oct 18
Full
Oct 26
Last Quarter

Hourly Weather History & Observations

Time (EDT) Temp. Dew Point Humidity Pressure Visibility Wind Dir Wind Speed Gust Speed Precip Events Conditions
12:54 AM 46.9 °F 45.0 °F 93% 30.18 in 10.0 mi Calm Calm - N/A   Overcast
1:54 AM 48.9 °F 46.0 °F 90% 30.19 in 10.0 mi Calm Calm - N/A   Overcast
2:54 AM 48.9 °F 46.0 °F 90% 30.18 in 10.0 mi Calm Calm - N/A   Overcast
3:54 AM 50.0 °F 46.9 °F 89% 30.19 in 10.0 mi Calm Calm - N/A   Overcast
4:54 AM 50.0 °F 48.0 °F 93% 30.20 in 10.0 mi Calm Calm - N/A   Overcast
5:54 AM 50.0 °F 48.0 °F 93% 30.22 in 10.0 mi Calm Calm - N/A   Overcast
6:54 AM 51.1 °F 48.0 °F 89% 30.24 in 10.0 mi Calm Calm - N/A   Overcast
7:03 AM 51.8 °F 48.2 °F 88% 30.23 in 10.0 mi Calm Calm - N/A   Overcast
7:35 AM 51.8 °F 48.2 °F 88% 30.25 in 10.0 mi Calm Calm - N/A   Overcast
7:54 AM 52.0 °F 48.9 °F 89% 30.26 in 10.0 mi Calm Calm - N/A   Overcast
8:54 AM 53.1 °F 50.0 °F 89% 30.27 in 10.0 mi Calm Calm - N/A   Overcast
9:22 AM 53.6 °F 48.2 °F 82% 30.27 in 10.0 mi Calm Calm - N/A   Overcast
9:49 AM 55.4 °F 48.2 °F 77% 30.27 in 10.0 mi North 4.6 mph - N/A   Overcast
9:54 AM 55.0 °F 48.0 °F 77% 30.28 in 10.0 mi Calm Calm - N/A   Overcast
10:27 AM 55.4 °F 48.2 °F 77% 30.28 in 10.0 mi North 3.5 mph - N/A   Overcast
10:54 AM 55.9 °F 48.0 °F 75% 30.29 in 10.0 mi North 4.6 mph - N/A   Overcast
11:54 AM 57.0 °F 48.0 °F 72% 30.29 in 10.0 mi Calm Calm - N/A   Overcast
12:54 PM 59.0 °F 48.0 °F 67% 30.28 in 10.0 mi West 3.5 mph - N/A   Overcast
1:54 PM 61.0 °F 48.0 °F 62% 30.26 in 10.0 mi Calm Calm - N/A   Overcast
2:54 PM 62.1 °F 46.9 °F 58% 30.25 in 10.0 mi Calm Calm - N/A   Overcast
3:54 PM 63.0 °F 46.9 °F 56% 30.25 in 10.0 mi WSW 4.6 mph - N/A   Clear
4:54 PM 64.0 °F 48.0 °F 56% 30.25 in 10.0 mi NNW 4.6 mph - N/A   Clear
5:54 PM 62.1 °F 48.9 °F 62% 30.25 in 10.0 mi WNW 3.5 mph - N/A   Clear
6:54 PM 55.0 °F 51.1 °F 86% 30.26 in 10.0 mi Calm Calm - N/A   Clear
7:54 PM 51.1 °F 48.9 °F 92% 30.28 in 10.0 mi Calm Calm - N/A   Clear
8:54 PM 50.0 °F 48.0 °F 93% 30.29 in 10.0 mi Calm Calm - N/A   Clear
9:54 PM 48.0 °F 46.0 °F 93% 30.31 in 10.0 mi Calm Calm - N/A   Clear
10:54 PM 46.0 °F 45.0 °F 96% 30.32 in 10.0 mi Calm Calm - N/A   Clear
11:04 PM 46.4 °F 44.6 °F 93% 30.30 in 10.0 mi Calm Calm - N/A   Scattered Clouds
11:13 PM 46.4 °F 44.6 °F 93% 30.30 in 10.0 mi Calm Calm - N/A   Mostly Cloudy
11:36 PM 46.4 °F 44.6 °F 93% 30.30 in 10.0 mi Calm Calm - N/A   Partly Cloudy
11:54 PM 45.0 °F 44.1 °F 97% 30.32 in 10.0 mi Calm Calm - N/A   Scattered Clouds